Wetterdaten: Freitag, 12.12.2014
Datum Zeit Temp. A. Mod.Schuppen Waschkche Feuchte A. Luftdruck Regen Wind Richtung Richtung Sonnenschein Helligkeit Solar
12.12.2014 00:00 6,8 C 6,4 C 6,9 C 80 % 1008,0 hPa 0,0 l/m 35,8 km/h (5 Bft) SW67.5 230 0 min 0 lux 0 W/m
12.12.2014 00:05 6,8 C 6,2 C 6,9 C 80 % 1008,0 hPa 0,0 l/m 33,4 km/h (5 Bft) SW67.5 230 0 min 0 lux 0 W/m
12.12.2014 00:10 6,8 C 6,1 C 6,9 C 81 % 1008,0 hPa 0,0 l/m 35,5 km/h (5 Bft) SW22.5 225 0 min 0 lux 0 W/m
12.12.2014 00:15 6,8 C 6,1 C 6,9 C 82 % 1007,0 hPa 0,0 l/m 30,8 km/h (5 Bft) SW67.5 220 0 min 0 lux 0 W/m
12.12.2014 00:20 6,8 C 6,1 C 6,9 C 82 % 1007,0 hPa 0,0 l/m 39,6 km/h (6 Bft) SW22.5 225 0 min 0 lux 0 W/m
12.12.2014 00:25 6,7 C 6,2 C 6,9 C 83 % 1007,0 hPa 0,0 l/m 39,6 km/h (6 Bft) SW22.5 225 0 min 0 lux 0 W/m
12.12.2014 00:30 6,6 C 6,1 C 6,9 C 84 % 1007,0 hPa 0,0 l/m 32,9 km/h (5 Bft) S-SW67.5 210 0 min 0 lux 0 W/m
12.12.2014 00:35 6,6 C 6,1 C 6,9 C 85 % 1007,0 hPa 0,0 l/m 33,4 km/h (5 Bft) SW67.5 225 0 min 0 lux 0 W/m
12.12.2014 00:40 6,6 C 6,1 C 6,9 C 85 % 1007,0 hPa 0,0 l/m 33,9 km/h (5 Bft) SW45 215 0 min 0 lux 0 W/m
12.12.2014 00:45 6,6 C 6,1 C 6,9 C 85 % 1007,0 hPa 0,0 l/m 41,2 km/h (6 Bft) SW45 215 0 min 0 lux 0 W/m
12.12.2014 00:50 6,5 C 6,1 C 6,9 C 86 % 1007,0 hPa 0,0 l/m 34,7 km/h (5 Bft) S-SW67.5 205 0 min 0 lux 0 W/m
12.12.2014 00:55 6,5 C 6,1 C 7,0 C 86 % 1007,0 hPa 0,0 l/m 34,4 km/h (5 Bft) SW67.5 215 0 min 0 lux 0 W/m
12.12.2014 01:00 6,4 C 6,1 C 7,0 C 87 % 1007,0 hPa 0,0 l/m 28,8 km/h (5 Bft) SW45 220 0 min 0 lux 0 W/m
12.12.2014 01:05 6,4 C 6,1 C 7,0 C 87 % 1007,0 hPa 0,4 l/m 29,3 km/h (5 Bft) SW45 215 0 min 0 lux 0 W/m
12.12.2014 01:10 6,5 C 6,2 C 7,0 C 87 % 1007,0 hPa 0,0 l/m 35,0 km/h (5 Bft) SW67.5 220 0 min 0 lux 0 W/m
12.12.2014 01:15 6,5 C 6,3 C 7,0 C 87 % 1006,0 hPa 0,0 l/m 33,3 km/h (5 Bft) SW45 220 0 min 0 lux 0 W/m
12.12.2014 01:20 6,6 C 6,3 C 7,0 C 87 % 1006,0 hPa 0,0 l/m 32,4 km/h (5 Bft) SW67.5 220 0 min 0 lux 0 W/m
12.12.2014 01:25 6,6 C 6,3 C 7,0 C 87 % 1006,0 hPa 0,0 l/m 26,7 km/h (4 Bft) SW45 215 0 min 0 lux 0 W/m
12.12.2014 01:30 6,6 C 6,3 C 7,0 C 87 % 1006,0 hPa 0,0 l/m 34,3 km/h (5 Bft) SW45 215 0 min 0 lux 0 W/m
12.12.2014 01:35 6,8 C 6,4 C 7,1 C 87 % 1006,0 hPa 0,0 l/m 33,0 km/h (5 Bft) SW45 225 0 min 0 lux 0 W/m
12.12.2014 01:40 6,8 C 6,5 C 7,1 C 87 % 1006,0 hPa 0,0 l/m 43,1 km/h (6 Bft) S-SW67.5 205 0 min 0 lux 0 W/m
12.12.2014 01:45 6,9 C 6,5 C 7,0 C 86 % 1006,0 hPa 0,0 l/m 31,8 km/h (5 Bft) S-SW67.5 210 0 min 0 lux 0 W/m
12.12.2014 01:50 7,0 C 6,6 C 7,0 C 86 % 1006,0 hPa 0,0 l/m 41,1 km/h (6 Bft) SW45 215 0 min 0 lux 0 W/m
12.12.2014 01:55 7,0 C 6,6 C 7,0 C 86 % 1006,0 hPa 0,0 l/m 38,6 km/h (6 Bft) SW45 230 0 min 0 lux 0 W/m
12.12.2014 02:00 7,0 C 6,6 C 7,1 C 86 % 1006,0 hPa 0,0 l/m 35,6 km/h (5 Bft) SW67.5 225 0 min 0 lux 0 W/m
12.12.2014 02:05 7,0 C 6,6 C 7,1 C 86 % 1006,0 hPa 0,0 l/m 39,7 km/h (6 Bft) SW45 230 0 min 0 lux 0 W/m
12.12.2014 02:10 7,0 C 6,6 C 7,1 C 87 % 1006,0 hPa 0,0 l/m 30,6 km/h (5 Bft) SW45 225 0 min 0 lux 0 W/m
12.12.2014 02:15 7,1 C 6,7 C 7,1 C 87 % 1006,0 hPa 0,0 l/m 35,4 km/h (5 Bft) SW45 230 0 min 0 lux 0 W/m
12.12.2014 02:20 7,1 C 6,7 C 7,1 C 87 % 1006,0 hPa 0,0 l/m 36,2 km/h (5 Bft) SW67.5 225 0 min 0 lux 0 W/m
12.12.2014 02:25 7,1 C 6,7 C 7,1 C 87 % 1006,0 hPa 0,0 l/m 30,9 km/h (5 Bft) SW67.5 225 0 min 0 lux 0 W/m
12.12.2014 02:30 7,1 C 6,7 C 7,1 C 87 % 1006,0 hPa 0,0 l/m 40,5 km/h (6 Bft) S-SW45 210 0 min 0 lux 0 W/m
12.12.2014 02:35 7,1 C 6,7 C 7,1 C 87 % 1006,0 hPa 0,0 l/m 38,6 km/h (6 Bft) SW67.5 225 0 min 0 lux 0 W/m
12.12.2014 02:40 7,2 C 6,8 C 7,1 C 87 % 1006,0 hPa 0,0 l/m 31,9 km/h (5 Bft) SW22.5 230 0 min 0 lux 0 W/m
12.12.2014 02:45 7,2 C 6,8 C 7,1 C 87 % 1005,0 hPa 0,0 l/m 39,8 km/h (6 Bft) SW45 215 0 min 0 lux 0 W/m
12.12.2014 02:50 7,2 C 6,8 C 7,1 C 87 % 1005,0 hPa 0,0 l/m 36,3 km/h (5 Bft) SW45 215 0 min 0 lux 0 W/m
12.12.2014 02:55 7,2 C 6,8 C 7,2 C 87 % 1005,0 hPa 0,0 l/m 30,6 km/h (5 Bft) S-SW67.5 210 0 min 0 lux 0 W/m
12.12.2014 03:00 7,2 C 6,8 C 7,2 C 87 % 1005,0 hPa 0,0 l/m 34,5 km/h (5 Bft) S-SW45 210 0 min 0 lux 0 W/m
12.12.2014 03:05 7,3 C 6,8 C 7,2 C 87 % 1005,0 hPa 0,0 l/m 37,2 km/h (5 Bft) SW22.5 215 0 min 0 lux 0 W/m
12.12.2014 03:10 7,3 C 6,8 C 7,2 C 86 % 1005,0 hPa 0,0 l/m 31,3 km/h (5 Bft) SW45 215 0 min 0 lux 0 W/m
12.12.2014 03:15 7,4 C 6,8 C 7,2 C 86 % 1005,0 hPa 0,4 l/m 36,5 km/h (5 Bft) SW45 220 0 min 0 lux 0 W/m
12.12.2014 03:20 7,5 C 6,8 C 7,2 C 85 % 1005,0 hPa 0,0 l/m 37,1 km/h (5 Bft) S-SW45 210 0 min 0 lux 0 W/m
12.12.2014 03:25 7,6 C 6,9 C 7,2 C 84 % 1005,0 hPa 0,0 l/m 37,6 km/h (5 Bft) SW45 230 0 min 0 lux 0 W/m
12.12.2014 03:30 7,6 C 7,0 C 7,2 C 84 % 1005,0 hPa 0,0 l/m 38,7 km/h (6 Bft) SW67.5 230 0 min 0 lux 0 W/m
12.12.2014 03:35 7,6 C 7,0 C 7,2 C 83 % 1005,0 hPa 0,0 l/m 40,7 km/h (6 Bft) SW67.5 220 0 min 0 lux 0 W/m
12.12.2014 03:40 7,6 C 7,0 C 7,3 C 83 % 1004,0 hPa 0,0 l/m 37,2 km/h (5 Bft) SW67.5 230 0 min 0 lux 0 W/m
12.12.2014 03:45 7,7 C 7,0 C 7,3 C 82 % 1004,0 hPa 0,0 l/m 35,4 km/h (5 Bft) SW45 225 0 min 0 lux 0 W/m
12.12.2014 03:50 7,8 C 7,0 C 7,3 C 82 % 1004,0 hPa 0,0 l/m 32,4 km/h (5 Bft) SW45 215 0 min 0 lux 0 W/m
12.12.2014 03:55 7,8 C 7,0 C 7,3 C 82 % 1004,0 hPa 0,0 l/m 43,3 km/h (6 Bft) S-SW67.5 210 0 min 0 lux 0 W/m
12.12.2014 04:00 7,8 C 7,0 C 7,3 C 82 % 1004,0 hPa 0,0 l/m 39,4 km/h (6 Bft) S-SW67.5 210 0 min 0 lux 0 W/m
12.12.2014 04:05 7,8 C 7,0 C 7,3 C 82 % 1004,0 hPa 0,0 l/m 40,3 km/h (6 Bft) S-SW45 210 0 min 0 lux 0 W/m
12.12.2014 04:10 7,9 C 7,1 C 7,3 C 81 % 1004,0 hPa 0,0 l/m 36,7 km/h (5 Bft) SW45 215 0 min 0 lux 0 W/m
12.12.2014 04:15 7,9 C 7,1 C 7,3 C 81 % 1004,0 hPa 0,0 l/m 41,5 km/h (6 Bft) SW45 225 0 min 0 lux 0 W/m
12.12.2014 04:20 8,0 C 7,0 C 7,3 C 81 % 1004,0 hPa 0,0 l/m 47,0 km/h (6 Bft) SW45 225 0 min 0 lux 0 W/m
12.12.2014 04:25 8,0 C 7,1 C 7,3 C 80 % 1004,0 hPa 0,0 l/m 35,4 km/h (5 Bft) SW67.5 230 0 min 0 lux 0 W/m
12.12.2014 04:30 7,9 C 7,0 C 7,3 C 80 % 1004,0 hPa 0,0 l/m 32,3 km/h (5 Bft) SW67.5 215 0 min 0 lux 0 W/m
12.12.2014 04:35 7,9 C 7,0 C 7,3 C 80 % 1004,0 hPa 0,0 l/m 37,2 km/h (5 Bft) SW45 220 0 min 0 lux 0 W/m
12.12.2014 04:40 8,0 C 6,9 C 7,4 C 79 % 1003,0 hPa 0,0 l/m 40,2 km/h (6 Bft) SW45 215 0 min 0 lux 0 W/m
12.12.2014 04:45 7,9 C 6,9 C 7,4 C 79 % 1003,0 hPa 0,0 l/m 33,1 km/h (5 Bft) SW22.5 215 0 min 0 lux 0 W/m
12.12.2014 04:50 7,9 C 6,7 C 7,4 C 80 % 1003,0 hPa 0,0 l/m 31,7 km/h (5 Bft) SW45 215 0 min 0 lux 0 W/m
12.12.2014 04:55 7,9 C 7,0 C 7,4 C 79 % 1003,0 hPa 0,0 l/m 43,2 km/h (6 Bft) SW45 215 0 min 0 lux 0 W/m
12.12.2014 05:00 7,9 C 7,1 C 7,4 C 79 % 1003,0 hPa 0,0 l/m 32,2 km/h (5 Bft) S-SW22.5 205 0 min 0 lux 0 W/m
12.12.2014 05:05 7,8 C 7,1 C 7,4 C 79 % 1003,0 hPa 0,0 l/m 32,2 km/h (5 Bft) S-SW22.5 205 0 min 0 lux 0 W/m
12.12.2014 05:10 7,9 C 7,2 C 7,4 C 79 % 1003,0 hPa 0,0 l/m 36,0 km/h (5 Bft) SW45 220 0 min 0 lux 0 W/m
12.12.2014 05:15 7,9 C 7,2 C 7,4 C 79 % 1003,0 hPa 0,0 l/m 36,9 km/h (5 Bft) SW45 215 0 min 0 lux 0 W/m
12.12.2014 05:20 7,9 C 7,2 C 7,4 C 79 % 1003,0 hPa 0,0 l/m 39,4 km/h (6 Bft) S-SW22.5 210 0 min 0 lux 0 W/m
12.12.2014 05:25 7,9 C 7,3 C 7,4 C 78 % 1002,0 hPa 0,0 l/m 42,7 km/h (6 Bft) SW45 215 0 min 0 lux 0 W/m
12.12.2014 05:30 8,0 C 7,3 C 7,4 C 78 % 1002,0 hPa 0,0 l/m 44,7 km/h (6 Bft) SW67.5 215 0 min 0 lux 0 W/m
12.12.2014 05:35 8,0 C 7,3 C 7,4 C 78 % 1002,0 hPa 0,0 l/m 46,9 km/h (6 Bft) SW67.5 225 0 min 0 lux 0 W/m
12.12.2014 05:40 8,0 C 7,4 C 7,4 C 78 % 1002,0 hPa 0,0 l/m 39,7 km/h (6 Bft) S-SW67.5 210 0 min 0 lux 0 W/m
12.12.2014 05:45 7,9 C 7,3 C 7,4 C 78 % 1002,0 hPa 0,0 l/m 44,6 km/h (6 Bft) SW45 220 0 min 0 lux 0 W/m
12.12.2014 05:50 8,0 C 7,3 C 7,4 C 78 % 1002,0 hPa 0,0 l/m 40,8 km/h (6 Bft) SW22.5 220 0 min 0 lux 0 W/m
12.12.2014 05:55 8,1 C 7,5 C 7,4 C 77 % 1002,0 hPa 0,0 l/m 42,8 km/h (6 Bft) S-SW45 210 0 min 0 lux 0 W/m
12.12.2014 06:00 8,1 C 7,4 C 7,4 C 77 % 1002,0 hPa 0,0 l/m 37,2 km/h (5 Bft) SW45 220 0 min 0 lux 0 W/m
12.12.2014 06:05 8,1 C 7,4 C 7,4 C 77 % 1002,0 hPa 0,0 l/m 42,8 km/h (6 Bft) S-SW45 210 0 min 0 lux 0 W/m
12.12.2014 06:10 8,2 C 7,5 C 7,4 C 77 % 1002,0 hPa 0,0 l/m 38,2 km/h (6 Bft) S-SW45 200 0 min 0 lux 0 W/m
12.12.2014 06:15 8,3 C 7,6 C 7,4 C 77 % 1002,0 hPa 0,0 l/m 47,7 km/h (6 Bft) SW45 215 0 min 0 lux 0 W/m
12.12.2014 06:20 8,4 C 7,7 C 7,4 C 76 % 1002,0 hPa 0,0 l/m 42,4 km/h (6 Bft) S-SW67.5 205 0 min 0 lux 0 W/m
12.12.2014 06:25 8,3 C 7,7 C 7,4 C 76 % 1001,0 hPa 0,0 l/m 39,6 km/h (6 Bft) S-SW45 205 0 min 0 lux 0 W/m
12.12.2014 06:30 8,3 C 7,7 C 7,4 C 77 % 1001,0 hPa 0,0 l/m 43,7 km/h (6 Bft) SW22.5 215 0 min 0 lux 0 W/m
12.12.2014 06:35 8,3 C 7,7 C 7,4 C 77 % 1001,0 hPa 0,0 l/m 35,7 km/h (5 Bft) SW45 215 0 min 0 lux 0 W/m
12.12.2014 06:40 8,3 C 7,7 C 7,4 C 77 % 1001,0 hPa 0,0 l/m 46,7 km/h (6 Bft) S-SW45 210 0 min 0 lux 0 W/m
12.12.2014 06:45 8,4 C 7,7 C 7,4 C 76 % 1001,0 hPa 0,0 l/m 36,4 km/h (5 Bft) S-SW22.5 205 0 min 0 lux 0 W/m
12.12.2014 06:50 8,4 C 7,7 C 7,4 C 76 % 1001,0 hPa 0,0 l/m 34,1 km/h (5 Bft) SW22.5 215 0 min 0 lux 0 W/m
12.12.2014 06:55 8,4 C 7,6 C 7,5 C 75 % 1001,0 hPa 0,0 l/m 38,6 km/h (6 Bft) S-SW22.5 205 0 min 0 lux 0 W/m
12.12.2014 07:00 8,4 C 7,6 C 7,5 C 75 % 1000,0 hPa 0,0 l/m 42,5 km/h (6 Bft) S-SW45 205 0 min 0 lux 0 W/m
12.12.2014 07:05 8,4 C 7,7 C 7,5 C 75 % 1000,0 hPa 0,0 l/m 40,2 km/h (6 Bft) S-SW67.5 200 0 min 0 lux 0 W/m
12.12.2014 07:10 8,4 C 7,8 C 7,5 C 75 % 1000,0 hPa 0,0 l/m 42,0 km/h (6 Bft) S-SW45 210 0 min 0 lux 0 W/m
12.12.2014 07:15 8,4 C 7,9 C 7,5 C 75 % 1000,0 hPa 0,0 l/m 45,2 km/h (6 Bft) SW45 215 0 min 0 lux 0 W/m
12.12.2014 07:20 8,4 C 8,1 C 7,5 C 75 % 1000,0 hPa 0,0 l/m 39,9 km/h (6 Bft) SW45 215 0 min 0 lux 0 W/m
12.12.2014 07:25 8,5 C 8,2 C 7,5 C 75 % 1000,0 hPa 0,0 l/m 45,4 km/h (6 Bft) S-SW45 210 0 min 0 lux 0 W/m
12.12.2014 07:30 8,5 C 8,2 C 7,5 C 75 % 1000,0 hPa 0,0 l/m 43,8 km/h (6 Bft) S-SW45 210 0 min 0 lux 0 W/m
12.12.2014 07:35 8,5 C 8,2 C 7,5 C 76 % 1000,0 hPa 0,0 l/m 39,5 km/h (6 Bft) SW67.5 215 0 min 0 lux 0 W/m
12.12.2014 07:40 8,5 C 8,1 C 7,5 C 76 % 1000,0 hPa 0,0 l/m 43,8 km/h (6 Bft) SW45 215 0 min 0 lux 0 W/m
12.12.2014 07:45 8,5 C 8,1 C 7,5 C 76 % 1000,0 hPa 0,0 l/m 41,5 km/h (6 Bft) SW45 215 0 min 0 lux 0 W/m
12.12.2014 07:50 8,6 C 8,2 C 7,6 C 76 % 1000,0 hPa 0,0 l/m 41,5 km/h (6 Bft) SW45 215 0 min 0 lux 0 W/m
12.12.2014 07:55 8,7 C 8,3 C 7,6 C 75 % 1000,0 hPa 0,0 l/m 46,6 km/h (6 Bft) SW45 215 0 min 0 lux 0 W/m
12.12.2014 08:00 8,7 C 8,3 C 7,6 C 75 % 1000,0 hPa 0,0 l/m 51,4 km/h (7 Bft) S-SW67.5 210 0 min 0 lux 0 W/m
12.12.2014 08:05 8,7 C 8,4 C 7,6 C 75 % 1000,0 hPa 0,0 l/m 46,3 km/h (6 Bft) S-SW67.5 200 0 min 0 lux 0 W/m
12.12.2014 08:10 8,7 C 8,3 C 7,6 C 75 % 999,0 hPa 0,0 l/m 48,3 km/h (6 Bft) SW45 215 0 min 0 lux 0 W/m
12.12.2014 08:15 8,7 C 8,3 C 7,6 C 75 % 999,0 hPa 0,0 l/m 44,6 km/h (6 Bft) SW67.5 215 0 min 0 lux 0 W/m
12.12.2014 08:20 8,7 C 8,3 C 7,6 C 76 % 999,0 hPa 0,0 l/m 46,7 km/h (6 Bft) S-SW45 205 0 min 0 lux 0 W/m
12.12.2014 08:25 8,8 C 8,4 C 7,6 C 75 % 999,0 hPa 0,0 l/m 56,1 km/h (7 Bft) S-SW45 210 0 min 0 lux 0 W/m
12.12.2014 08:30 8,8 C 8,4 C 7,6 C 75 % 999,0 hPa 0,0 l/m 43,5 km/h (6 Bft) SW45 215 0 min 88 lux 0 W/m
12.12.2014 08:35 8,8 C 8,4 C 7,7 C 75 % 999,0 hPa 0,0 l/m 44,9 km/h (6 Bft) SW45 215 0 min 88 lux 0 W/m
12.12.2014 08:40 8,8 C 8,5 C 7,7 C 75 % 999,0 hPa 0,0 l/m 44,9 km/h (6 Bft) SW45 215 0 min 172 lux 1 W/m
12.12.2014 08:45 8,9 C 8,6 C 7,7 C 76 % 998,9 hPa 0,0 l/m 44,2 km/h (6 Bft) S-SW45 210 0 min 172 lux 1 W/m
12.12.2014 08:50 9,0 C 8,6 C 7,7 C 75 % 1018,0 hPa 0,0 l/m 49,2 km/h (7 Bft) SW45 215 0 min 172 lux 1 W/m
12.12.2014 08:55 8,8 C 8,6 C 7,7 C 75 % 999,0 hPa 0,0 l/m 41,3 km/h (6 Bft) S-SW45 210 0 min 191 lux 1 W/m
12.12.2014 09:00 9,0 C 8,8 C 7,7 C 75 % 998,9 hPa 0,0 l/m 47,9 km/h (6 Bft) SW45 215 0 min 191 lux 1 W/m
12.12.2014 09:05 9,0 C 8,8 C 7,7 C 75 % 998,9 hPa 0,0 l/m 53,6 km/h (7 Bft) SW67.5 215 0 min 362 lux 2 W/m
12.12.2014 09:09 9,0 C 8,8 C 7,7 C 75 % 997,9 hPa 0,0 l/m 49,9 km/h (7 Bft) SW22.5 215 0 min 492 lux 3 W/m
12.12.2014 09:10 9,0 C 8,8 C 7,7 C 75 % 997,9 hPa 0,0 l/m 49,9 km/h (7 Bft) SW22.5 215 0 min 492 lux 3 W/m
12.12.2014 09:15 9,1 C 8,3 C 7,8 C 75 % 997,9 hPa 0,0 l/m 57,8 km/h (7 Bft) S-SW45 210 0 min 492 lux 3 W/m
12.12.2014 09:20 9,1 C 8,2 C 7,8 C 75 % 997,9 hPa 0,0 l/m 52,2 km/h (7 Bft) S-SW67.5 210 0 min 492 lux 3 W/m
12.12.2014 09:25 9,0 C 8,1 C 7,8 C 76 % 997,9 hPa 0,0 l/m 45,9 km/h (6 Bft) SW22.5 225 0 min 895 lux 6 W/m
12.12.2014 09:30 8,9 C 8,0 C 7,8 C 76 % 997,9 hPa 0,0 l/m 45,4 km/h (6 Bft) S-SW45 210 0 min 895 lux 6 W/m
12.12.2014 09:35 8,8 C 8,0 C 7,8 C 78 % 997,9 hPa 0,0 l/m 44,5 km/h (6 Bft) SW67.5 220 0 min 895 lux 6 W/m
12.12.2014 09:40 8,8 C 8,1 C 7,8 C 78 % 997,9 hPa 0,0 l/m 54,1 km/h (7 Bft) SW67.5 215 0 min 895 lux 6 W/m
12.12.2014 09:45 8,8 C 8,1 C 7,8 C 78 % 997,9 hPa 0,0 l/m 51,2 km/h (7 Bft) S-SW45 210 0 min 895 lux 6 W/m
12.12.2014 09:50 8,7 C 8,1 C 7,9 C 78 % 997,9 hPa 0,0 l/m 46,1 km/h (6 Bft) SW67.5 215 0 min 895 lux 6 W/m
12.12.2014 09:55 8,7 C 8,1 C 7,9 C 78 % 997,9 hPa 0,0 l/m 56,7 km/h (7 Bft) SW67.5 220 0 min 895 lux 6 W/m
12.12.2014 10:00 8,6 C 8,1 C 7,9 C 79 % 997,9 hPa 0,0 l/m 52,0 km/h (7 Bft) SW45 235 0 min 2,03 klux 14 W/m
12.12.2014 10:05 8,6 C 8,2 C 7,9 C 79 % 997,9 hPa 0,0 l/m 41,8 km/h (6 Bft) SW67.5 215 0 min 2,03 klux 14 W/m
12.12.2014 10:10 8,8 C 8,2 C 7,9 C 78 % 997,9 hPa 0,0 l/m 50,5 km/h (7 Bft) SW45 215 0 min 2,03 klux 14 W/m
12.12.2014 10:15 8,9 C 8,3 C 7,9 C 78 % 997,9 hPa 0,0 l/m 52,7 km/h (7 Bft) SW45 215 0 min 2,10 klux 14 W/m
12.12.2014 10:20 8,9 C 8,2 C 7,9 C 79 % 997,9 hPa 0,0 l/m 46,7 km/h (6 Bft) SW45 220 0 min 2,66 klux 18 W/m
12.12.2014 10:25 8,9 C 8,3 C 8,0 C 78 % 997,9 hPa 0,0 l/m 50,8 km/h (7 Bft) SW45 225 0 min 2,66 klux 18 W/m
12.12.2014 10:30 8,9 C 8,2 C 8,0 C 78 % 997,9 hPa 0,0 l/m 47,4 km/h (6 Bft) S-SW45 210 0 min 2,30 klux 16 W/m
12.12.2014 10:35 8,8 C 8,2 C 8,0 C 79 % 997,9 hPa 0,0 l/m 48,1 km/h (6 Bft) SW67.5 220 0 min 2,30 klux 16 W/m
12.12.2014 10:40 8,7 C 8,2 C 8,0 C 80 % 997,9 hPa 0,0 l/m 46,5 km/h (6 Bft) SW22.5 230 0 min 2,05 klux 14 W/m
12.12.2014 10:45 8,7 C 8,1 C 8,0 C 80 % 997,9 hPa 0,0 l/m 45,9 km/h (6 Bft) SW45 220 0 min 2,05 klux 14 W/m
12.12.2014 10:50 8,6 C 8,2 C 8,0 C 81 % 997,9 hPa 0,0 l/m 51,3 km/h (7 Bft) SW45 225 0 min 3,04 klux 21 W/m
12.12.2014 10:55 8,5 C 8,2 C 8,0 C 81 % 998,0 hPa 0,0 l/m 46,2 km/h (6 Bft) SW45 215 0 min 3,04 klux 21 W/m
12.12.2014 11:00 8,4 C 8,2 C 8,0 C 81 % 998,0 hPa 0,0 l/m 47,8 km/h (6 Bft) SW45 225 0 min 3,04 klux 21 W/m
12.12.2014 11:05 8,4 C 8,2 C 8,0 C 81 % 998,0 hPa 0,0 l/m 47,2 km/h (6 Bft) SW45 215 0 min 3,04 klux 21 W/m
12.12.2014 11:10 8,5 C 8,2 C 8,0 C 81 % 998,0 hPa 0,0 l/m 56,0 km/h (7 Bft) SW22.5 235 0 min 4,21 klux 29 W/m
12.12.2014 11:15 8,6 C 8,3 C 8,0 C 81 % 997,9 hPa 0,0 l/m 49,6 km/h (7 Bft) SW45 220 0 min 5,02 klux 34 W/m
12.12.2014 11:20 8,5 C 8,3 C 8,0 C 81 % 996,9 hPa 0,0 l/m 44,6 km/h (6 Bft) SW67.5 220 0 min 5,44 klux 37 W/m
12.12.2014 11:25 8,6 C 8,3 C 8,0 C 81 % 996,9 hPa 0,0 l/m 48,9 km/h (7 Bft) SW67.5 215 0 min 5,44 klux 37 W/m
12.12.2014 11:30 8,6 C 8,5 C 8,0 C 82 % 996,9 hPa 0,0 l/m 44,7 km/h (6 Bft) SW45 215 0 min 5,31 klux 36 W/m
12.12.2014 11:35 8,6 C 8,5 C 8,0 C 82 % 996,9 hPa 0,0 l/m 38,3 km/h (6 Bft) SW45 215 0 min 5,31 klux 36 W/m
12.12.2014 11:40 8,6 C 8,5 C 8,0 C 81 % 996,9 hPa 0,0 l/m 40,1 km/h (6 Bft) S-SW45 210 0 min 5,24 klux 36 W/m
12.12.2014 11:45 8,7 C 8,5 C 8,0 C 80 % 996,9 hPa 0,0 l/m 40,1 km/h (6 Bft) S-SW45 210 0 min 4,69 klux 32 W/m
12.12.2014 11:50 8,8 C 8,3 C 8,0 C 80 % 996,9 hPa 0,0 l/m 39,4 km/h (6 Bft) S-SW67.5 210 0 min 2,91 klux 20 W/m
12.12.2014 11:55 8,8 C 8,2 C 8,0 C 80 % 996,9 hPa 0,0 l/m 52,1 km/h (7 Bft) SW67.5 220 0 min 2,20 klux 15 W/m
12.12.2014 12:00 8,8 C 8,3 C 8,0 C 80 % 996,9 hPa 0,0 l/m 46,7 km/h (6 Bft) SW67.5 225 0 min 2,06 klux 14 W/m
12.12.2014 12:05 8,9 C 8,2 C 8,0 C 80 % 996,9 hPa 0,0 l/m 40,8 km/h (6 Bft) SW45 220 0 min 1,85 klux 13 W/m
12.12.2014 12:10 8,9 C 8,3 C 8,0 C 80 % 996,9 hPa 0,0 l/m 46,8 km/h (6 Bft) SW45 215 0 min 2,40 klux 16 W/m
12.12.2014 12:15 9,0 C 8,4 C 8,0 C 79 % 996,9 hPa 0,0 l/m 45,2 km/h (6 Bft) SW67.5 225 0 min 2,40 klux 16 W/m
12.12.2014 12:20 9,2 C 8,5 C 8,0 C 79 % 996,9 hPa 0,0 l/m 48,2 km/h (6 Bft) SW67.5 230 0 min 3,06 klux 21 W/m
12.12.2014 12:25 9,2 C 8,7 C 8,0 C 79 % 996,9 hPa 0,0 l/m 51,8 km/h (7 Bft) SW67.5 230 0 min 3,06 klux 21 W/m
12.12.2014 12:30 9,2 C 8,8 C 8,0 C 79 % 995,9 hPa 0,0 l/m 45,8 km/h (6 Bft) SW45 225 0 min 3,06 klux 21 W/m
12.12.2014 12:35 9,3 C 8,9 C 8,0 C 79 % 996,9 hPa 0,0 l/m 48,6 km/h (6 Bft) SW45 215 0 min 4,85 klux 33 W/m
12.12.2014 12:40 9,4 C 9,0 C 8,0 C 79 % 996,9 hPa 0,0 l/m 48,6 km/h (6 Bft) SW45 215 0 min 5,45 klux 37 W/m
12.12.2014 12:45 9,5 C 9,1 C 8,0 C 79 % 995,9 hPa 0,0 l/m 57,5 km/h (7 Bft) SW45 215 0 min 4,77 klux 33 W/m
12.12.2014 12:50 9,5 C 9,1 C 8,0 C 78 % 995,9 hPa 0,0 l/m 58,6 km/h (7 Bft) SW67.5 220 0 min 4,77 klux 33 W/m
12.12.2014 12:55 9,5 C 9,3 C 8,0 C 78 % 995,9 hPa 0,0 l/m 51,1 km/h (7 Bft) SW45 230 0 min 3,15 klux 22 W/m
12.12.2014 13:00 9,5 C 9,2 C 8,0 C 78 % 995,9 hPa 0,0 l/m 55,2 km/h (7 Bft) SW45 235 0 min 3,66 klux 25 W/m
12.12.2014 13:05 9,5 C 9,2 C 8,0 C 79 % 995,9 hPa 0,0 l/m 55,2 km/h (7 Bft) SW45 235 0 min 3,96 klux 27 W/m
12.12.2014 13:10 9,5 C 9,3 C 8,0 C 79 % 995,9 hPa 0,0 l/m 55,2 km/h (7 Bft) SW45 220 0 min 4,08 klux 28 W/m
12.12.2014 13:15 9,5 C 9,4 C 8,0 C 79 % 995,9 hPa 0,0 l/m 61,9 km/h (7 Bft) SW45 230 0 min 4,48 klux 31 W/m
12.12.2014 13:20 9,5 C 9,4 C 8,0 C 79 % 995,9 hPa 0,0 l/m 53,4 km/h (7 Bft) SW67.5 220 0 min 3,59 klux 25 W/m
12.12.2014 13:25 9,5 C 9,1 C 8,0 C 80 % 995,9 hPa 0,0 l/m 56,4 km/h (7 Bft) SW67.5 230 0 min 2,74 klux 19 W/m
12.12.2014 13:30 9,5 C 9,0 C 8,0 C 80 % 995,9 hPa 0,0 l/m 58,7 km/h (7 Bft) SW67.5 230 5 min 200 klux 1368 W/m
12.12.2014 13:35 9,5 C 9,0 C 8,0 C 80 % 995,9 hPa 0,0 l/m 51,7 km/h (7 Bft) SW67.5 225 0 min 2,97 klux 20 W/m
12.12.2014 13:40 9,3 C 8,9 C 8,0 C 81 % 995,9 hPa 0,0 l/m 44,5 km/h (6 Bft) SW67.5 225 0 min 2,77 klux 19 W/m
12.12.2014 13:45 9,3 C 8,9 C 8,0 C 81 % 995,9 hPa 0,0 l/m 51,3 km/h (7 Bft) SW45 225 0 min 2,77 klux 19 W/m
12.12.2014 13:49 9,3 C 8,8 C 8,0 C 82 % 995,9 hPa 0,0 l/m 50,7 km/h (7 Bft) SW67.5 215 0 min 2,07 klux 14 W/m
12.12.2014 13:55 9,3 C 8,8 C 8,5 C 82 % 995,9 hPa 0,0 l/m 44,7 km/h (6 Bft) SW45 220 0 min 2,28 klux 16 W/m
12.12.2014 14:00 9,4 C 8,9 C 8,5 C 81 % 995,9 hPa 0,0 l/m 47,3 km/h (6 Bft) SW45 235 0 min 2,28 klux 16 W/m
12.12.2014 14:05 9,4 C 9,1 C 8,5 C 82 % 995,9 hPa 0,0 l/m 42,8 km/h (6 Bft) SW45 225 0 min 3,47 klux 24 W/m
12.12.2014 14:10 9,4 C 9,1 C 8,5 C 81 % 995,9 hPa 0,0 l/m 50,7 km/h (7 Bft) SW45 230 0 min 3,13 klux 21 W/m
12.12.2014 14:15 9,5 C 9,2 C 8,6 C 81 % 995,9 hPa 0,0 l/m 48,6 km/h (6 Bft) SW45 220 0 min 3,08 klux 21 W/m
12.12.2014 14:20 9,4 C 9,1 C 8,6 C 82 % 995,9 hPa 0,0 l/m 44,3 km/h (6 Bft) SW67.5 230 0 min 3,47 klux 24 W/m
12.12.2014 14:25 9,4 C 9,1 C 8,6 C 82 % 995,9 hPa 0,0 l/m 44,3 km/h (6 Bft) SW67.5 230 0 min 2,76 klux 19 W/m
12.12.2014 14:30 9,3 C 9,1 C 8,6 C 83 % 995,9 hPa 0,0 l/m 47,7 km/h (6 Bft) SW67.5 230 0 min 2,57 klux 18 W/m
12.12.2014 14:35 9,3 C 9,3 C 8,6 C 83 % 995,9 hPa 0,0 l/m 41,5 km/h (6 Bft) SW45 235 0 min 1,96 klux 13 W/m
12.12.2014 14:40 9,4 C 9,5 C 8,6 C 83 % 995,9 hPa 0,0 l/m 48,4 km/h (6 Bft) SW67.5 225 0 min 3,71 klux 25 W/m
12.12.2014 14:45 9,5 C 9,5 C 8,6 C 83 % 995,9 hPa 0,0 l/m 49,7 km/h (7 Bft) S-SW67.5 205 0 min 3,79 klux 26 W/m
12.12.2014 14:50 9,5 C 9,6 C 8,6 C 82 % 995,9 hPa 0,0 l/m 50,4 km/h (7 Bft) SW67.5 230 0 min 3,89 klux 27 W/m
12.12.2014 14:55 9,5 C 9,6 C 8,6 C 82 % 995,9 hPa 0,0 l/m 47,2 km/h (6 Bft) SW67.5 215 0 min 3,89 klux 27 W/m
12.12.2014 15:00 9,5 C 9,4 C 8,6 C 83 % 995,9 hPa 0,0 l/m 42,5 km/h (6 Bft) SW45 235 0 min 2,94 klux 20 W/m
12.12.2014 15:04 9,5 C 9,3 C 8,6 C 83 % 995,9 hPa 0,0 l/m 50,7 km/h (7 Bft) SW67.5 220 0 min 2,35 klux 16 W/m
12.12.2014 15:10 9,4 C 9,1 C 8,6 C 84 % 995,9 hPa 0,0 l/m 37,9 km/h (6 Bft) SW67.5 215 0 min 1,63 klux 11 W/m
12.12.2014 15:15 9,4 C 9,1 C 8,6 C 84 % 995,9 hPa 0,0 l/m 48,4 km/h (6 Bft) SW45 230 0 min 1,63 klux 11 W/m
12.12.2014 15:20 9,4 C 9,1 C 8,7 C 84 % 995,9 hPa 0,0 l/m 48,4 km/h (6 Bft) SW45 230 0 min 1,63 klux 11 W/m
12.12.2014 15:25 9,2 C 9,0 C 8,7 C 85 % 995,9 hPa 0,0 l/m 47,8 km/h (6 Bft) SW45 225 0 min 1,63 klux 11 W/m
12.12.2014 15:30 9,2 C 9,0 C 8,7 C 85 % 995,9 hPa 0,0 l/m 40,8 km/h (6 Bft) SW45 230 0 min 1,63 klux 11 W/m
12.12.2014 15:35 9,2 C 9,0 C 8,7 C 85 % 994,9 hPa 0,0 l/m 39,6 km/h (6 Bft) SW45 230 0 min 1,19 klux 8 W/m
12.12.2014 15:40 9,2 C 8,9 C 8,7 C 85 % 994,9 hPa 0,0 l/m 40,1 km/h (6 Bft) SW45 215 0 min 707 lux 5 W/m
12.12.2014 15:45 9,2 C 8,9 C 8,7 C 85 % 994,9 hPa 0,0 l/m 40,1 km/h (6 Bft) SW45 215 0 min 707 lux 5 W/m
12.12.2014 15:50 9,2 C 8,9 C 8,7 C 85 % 994,9 hPa 0,0 l/m 39,7 km/h (6 Bft) SW45 220 0 min 707 lux 5 W/m
12.12.2014 15:55 9,2 C 8,9 C 8,7 C 85 % 994,9 hPa 0,0 l/m 36,1 km/h (5 Bft) SW67.5 225 0 min 707 lux 5 W/m
12.12.2014 16:00 9,2 C 8,8 C 8,7 C 85 % 994,9 hPa 0,0 l/m 38,7 km/h (6 Bft) SW45 225 0 min 707 lux 5 W/m
12.12.2014 16:05 9,2 C 8,8 C 8,7 C 85 % 994,9 hPa 0,0 l/m 38,7 km/h (6 Bft) SW45 225 0 min 707 lux 5 W/m
12.12.2014 16:10 9,2 C 8,8 C 8,8 C 86 % 994,9 hPa 0,0 l/m 36,7 km/h (5 Bft) SW45 230 0 min 707 lux 5 W/m
12.12.2014 16:15 9,1 C 8,8 C 8,8 C 86 % 994,9 hPa 0,0 l/m 36,0 km/h (5 Bft) SW45 215 0 min 109 lux 1 W/m
12.12.2014 16:20 9,1 C 8,7 C 8,8 C 86 % 995,9 hPa 0,0 l/m 45,7 km/h (6 Bft) W-SW22.5 240 0 min 109 lux 0 W/m
12.12.2014 16:25 8,8 C 8,6 C 8,8 C 88 % 995,9 hPa 0,4 l/m 31,7 km/h (5 Bft) W45 270 0 min 109 lux 0 W/m
12.12.2014 16:30 8,8 C 8,6 C 8,8 C 88 % 995,9 hPa 0,0 l/m 48,3 km/h (6 Bft) W-SW45 240 0 min 109 lux 0 W/m
12.12.2014 16:35 8,9 C 8,5 C 8,8 C 86 % 995,9 hPa 0,4 l/m 40,1 km/h (6 Bft) SW45 235 0 min 109 lux 0 W/m
12.12.2014 16:40 8,8 C 8,5 C 8,8 C 86 % 995,9 hPa 0,0 l/m 39,4 km/h (6 Bft) W-SW67.5 240 0 min 109 lux 0 W/m
12.12.2014 16:45 8,8 C 8,5 C 8,8 C 86 % 995,9 hPa 0,0 l/m 37,3 km/h (5 Bft) W-SW45 250 0 min 109 lux 0 W/m
12.12.2014 16:50 8,8 C 8,4 C 8,8 C 87 % 995,9 hPa 0,0 l/m 33,1 km/h (5 Bft) W-SW67.5 245 0 min 6 lux 0 W/m
_ Min-Zeit 01:00 00:10 00:00 06:55 15:35 - 01:25 - - - - -
Minimum _ 6,4 C 6,1 C 6,9 C 75 % 994,9 hPa - 26,7 km/h (4 Bft) - - - - -
_ Max-Zeit 12:45 14:50 16:10 16:25 08:50 01:05 13:15 - - 13:30 13:30 13:30
Maximum _ 9,5 C 9,6 C 8,8 C 88 % 1018,0 hPa 0,4 l/m 61,9 km/h
SW (7 Bft)
- - 5 min 200 klux 1368 W/m
Durchschnitt _ 8,3 C 7,9 C 7,7 C 81 % 1000,3 hPa #1,4 l/m 42,6 km/h (6 Bft) SW - #5 min. 2,09 klux 31 W/m